Location: Dead Woman Crossing
(43.5369°N, 106.3228°W)
Time: 11:44:12
(UTC+00:00)

JY1SAT - Visible Passes

Search period start: 25 June 2022 00:00
Search period end: 05 July 2022 00:00
Orbit: 567 x 585 km, 97.6° (Epoch: 24 June)

Date Brightness Start Highest point End Pass type
(mag) Time Alt. Az. Time Alt. Az. Time Alt. Az.
25 Jun ? 03:50:44 12° SE 03:54:00 31° ENE 03:57:42 10° N visible
25 Jun ? 05:26:58 15° SW 05:29:16 22° W 05:32:34 10° NW visible
26 Jun ? 03:54:24 13° SE 03:57:36 34° ENE 04:01:23 10° N visible
26 Jun ? 05:30:38 14° SW 05:32:56 21° W 05:36:05 10° NW visible
27 Jun ? 03:58:03 14° SE 04:01:13 37° ENE 04:05:04 10° N visible
27 Jun ? 05:34:18 13° SW 05:36:35 19° W 05:39:34 10° NW visible
28 Jun ? 04:01:44 15° SE 04:04:49 41° ENE 04:08:44 10° N visible
28 Jun ? 05:37:58 12° SW 05:40:15 17° W 05:43:02 10° NW visible
29 Jun ? 04:05:23 16° SE 04:08:26 45° ENE 04:12:24 10° N visible
29 Jun ? 05:41:38 11° SW 05:43:54 16° W 05:46:28 10° NW visible
30 Jun ? 04:09:03 17° SE 04:12:02 49° ENE 04:16:03 10° N visible
30 Jun ? 05:45:18 10° SW 05:47:34 14° W 05:49:52 10° WNW visible
01 Jul ? 04:12:43 18° SE 04:15:38 54° ENE 04:19:42 10° N visible
01 Jul ? 05:49:12 10° WSW 05:51:13 13° W 05:53:13 10° WNW visible
02 Jul ? 04:16:22 19° SSE 04:19:14 60° ENE 04:23:20 10° N visible
02 Jul ? 05:53:15 10° WSW 05:54:52 12° W 05:56:29 10° WNW visible
03 Jul ? 04:20:02 20° SSE 04:22:50 66° ENE 04:26:58 10° N visible
03 Jul ? 05:57:26 10° WSW 05:58:31 11° W 05:59:36 10° WNW visible
04 Jul ? 04:23:42 21° SSE 04:26:26 73° ENE 04:30:35 10° N visible
